Location: Farfareta
(44.0167°N, 11.5833°E)
Time: 22:36:08
(UTC+00:00)

Daily predictions for brighter satellites

Satellite Brightness Start Highest point End
(mag) Time Altitude Azimuth Time Altitude Azimuth Time Altitude Azimuth
NOSS 3-2 (A) 4.2 17:22:28 10° NNW 17:29:51 60° NE 17:38:09 10° SE
Meteor 1-21 4.4 17:32:05 10° NNW 17:37:42 84° W 17:43:18 10° S
Cosmos 2151 Rocket 4.4 17:34:18 10° SSE 17:38:12 30° E 17:42:08 10° NNE
Lacrosse 5 rocket 3.8 17:37:07 10° NW 17:39:41 15° N 17:42:18 10° NNE
Cosmos 1975 Rocket 3.1 17:36:38 10° N 17:40:59 83° W 17:45:18 10° S
HJ-1C 4.2 17:40:46 10° SE 17:43:39 29° ENE 17:46:35 10° N
COSMO-SKYMED 1 3.5 17:46:23 10° N 17:50:38 54° WNW 17:54:52 10° SSW
Shenzhou-11 Module 3.1 17:49:13 10° SSW 17:50:39 16° SSE 17:51:33 13° SE
Ariane Rocket 4.2 17:48:18 10° ESE 17:52:13 23° ENE 17:56:09 10° NNE
H-2A R/B 2.2 17:48:09 10° SE 17:52:56 48° ENE 17:57:52 10° N
Nadezhda 4 Rocket 4.3 17:47:59 10° N 17:53:49 44° ENE 17:59:37 10° SSE
SJ 16-02 4.4 17:52:51 10° W 17:55:03 13° NW 17:57:13 10° NNW
Exosat Rocket 4.1 17:52:06 10° S 17:57:07 36° ESE 18:01:39 10° NE
Cosmos 2263 Rocket 4.1 17:53:22 10° WSW 17:58:17 31° NW 18:03:16 10° N
USA 116 3.6 17:57:10 10° NNE 18:00:53 73° ESE 18:05:05 10° S
Cosmos 1939 Rocket 4.5 17:57:06 10° SSW 18:01:00 40° W 18:04:57 10° NNW
Cosmos 1844 Rocket 2.6 17:56:56 10° SSW 18:02:27 69° ESE 18:08:01 10° NNE
Cosmos 1072 Rocket 4.5 17:56:15 10° S 18:02:30 81° E 18:08:54 10° N
Cosmos 372 Rocket 4.5 17:59:08 10° SSW 18:04:20 66° WNW 18:09:33 10° NNE
Cosmos 1707 2.9 18:02:15 10° NNW 18:06:05 75° W 18:09:54 10° S
Cosmos 2278 Rocket 4.1 18:10:00 10° ENE 18:10:00 10° ENE 18:03:58 10° SE
Cosmos 1626 3.9 18:05:22 10° NE 18:07:28 14° ENE 18:07:28 14° ENE
NOSS 3-2 (C) 4.1 18:00:39 10° NNW 18:08:07 65° NE 18:16:08 12° SE
CZ-2C R/B 3.4 18:06:14 10° SW 18:08:08 13° SSW 18:09:57 10° SSE
Cosmos 1844 3.7 18:04:18 10° S 18:09:53 63° ESE 18:15:29 10° NNE
Cosmos 2034 Rocket 4.0 18:03:47 10° S 18:10:01 61° E 18:16:15 10° NNE
NOSS 3-4 (A) 3.8 18:06:03 10° S 18:11:25 38° ESE 18:17:03 10° NE
NOSS 3-4 (C) 3.8 18:06:11 10° S 18:11:32 38° ESE 18:17:09 10° NE
ISS -2.0 18:08:54 10° WNW 18:11:51 27° NNW 18:14:48 10° NE
USA 186 2.9 18:11:03 22° E 18:12:02 25° ENE 18:14:48 10° NNE
Meteor 1-12 Rocket 4.4 18:07:35 10° S 18:13:28 85° W 18:19:18 10° N
Meteor 2-5 Rocket 4.4 18:08:49 10° N 18:14:00 35° ENE 18:18:15 15° SE
Cosmos 1300 Rocket 3.8 18:14:26 10° SSW 18:18:49 73° W 18:23:16 10° N
Okean 1 Rocket 3.5 18:17:51 10° SSE 18:22:02 40° E 18:26:15 10° NNE
Resurs 01 Rocket 3.5 18:25:52 14° ENE 18:25:52 14° ENE 18:27:55 10° NNE
CENTAUR R/B 3.2 18:19:07 10° NW 18:27:15 77° NE 18:34:46 16° SE
Cosmos 1833 Rocket 3.9 18:23:44 10° N 18:28:21 25° NE 18:30:12 21° E
CSL-04 Rocket 4.1 18:25:36 10° S 18:31:00 67° WSW 18:36:31 10° NNW
Cosmos 1766 3.5 18:29:21 10° SSE 18:33:03 43° E 18:36:49 10° NNE
Okean 2 Rocket 4.1 18:29:04 10° SSW 18:33:24 50° WNW 18:37:46 10° N
YAOGAN 1 4.2 18:29:49 10° SSW 18:33:47 35° W 18:37:47 10° NNW
ATLAS 2AS CENTAUR R/B 3.1 18:26:10 10° SSW 18:33:49 56° ESE 18:41:30 10° NE
Cosmos 1025 Rocket 3.8 18:31:12 10° NNW 18:35:30 54° W 18:39:47 10° S
Cosmos 1634 Rocket 4.2 18:32:02 10° SSE 18:37:48 44° E 18:43:38 10° NNE
ATLAS 3B R/B 3.4 18:33:02 10° NNW 18:39:21 37° NE 18:42:35 25° E
SPOT 3 Rocket 4.4 18:40:10 27° E 18:41:02 29° ENE 18:45:25 10° N
Abrixas rocket 1.7 18:39:19 10° WNW 18:42:09 76° NNE 18:42:11 76° NNE
CREW DRAGON DEMO-1 DEB 2.6 18:41:07 10° WNW 18:44:09 76° NNE 18:44:16 74° ENE
Cosmos 1536 Rocket 4.2 18:40:54 10° NNW 18:45:18 59° W 18:49:41 10° S
Cosmos 1125 Rocket 3.8 18:40:58 10° SSW 18:46:14 69° WNW 18:51:34 10° NNE
Resurs 1-3 4.4 18:48:54 32° ENE 18:48:54 32° ENE 18:52:43 10° N
SJ-6B 2.7 18:48:31 52° ESE 18:48:58 57° ENE 18:52:42 10° N
CZ-4 R/B 4.3 18:48:33 10° SW 18:51:34 19° W 18:54:34 10° NW
Cosmos 1892 Rocket 4.5 18:48:11 10° N 18:51:24 30° NE 18:51:24 30° NE
Cosmos 2195 Rocket 4.4 18:49:29 10° N 18:55:44 72° E 19:00:07 20° SSE
USA 238 DEB 4.5 18:49:16 10° NW 18:56:20 55° WSW 19:03:15 12° SSE
USA 238 4.4 18:49:22 10° NW 18:56:27 56° WSW 19:03:18 12° SSE
Cosmos 2285 Rocket 4.1 18:50:36 10° SSW 18:56:54 77° WNW 19:03:18 10° NNE
Cosmos 1627 Rocket 4.5 18:50:58 10° N 18:57:22 68° E 19:01:24 24° SSE
Cosmos 1674 3.2 18:53:52 10° NNW 18:57:40 57° W 19:00:17 18° S
Cosmos 2026 Rocket 4.0 18:52:16 10° N 18:58:37 65° E 19:02:16 27° SSE
Cosmos 1092 Rocket 3.9 18:52:35 10° N 18:58:48 85° E 19:04:17 14° S
MOS 1 Rocket 4.4 18:59:30 10° N 19:03:36 41° WNW 19:07:36 10° SW
Cosmos 1428 Rocket 4.4 19:00:55 10° N 19:07:10 71° E 19:10:06 33° SSE
TSX-5 4.1 19:04:29 10° SW 19:08:16 74° WNW 19:13:07 10° NNE
ARGOS 4.0 19:03:50 10° S 19:08:59 48° W 19:14:12 10° NNW
Cosmos 1340 Rocket 3.9 19:15:11 34° NNE 19:15:11 34° NNE 19:17:34 10° NNE
CZ-2C R/B 2.7 19:08:24 10° NNE 19:14:00 83° WNW 19:19:38 10° SSW
Cosmos 2279 Rocket 4.0 19:12:59 45° SE 19:14:18 53° E 19:20:23 10° NNE
Cosmos 1733 3.5 19:13:48 34° SSW 19:15:17 63° W 19:19:06 10° N
MOS 1 4.3 19:13:05 28° S 19:16:17 80° WSW 19:22:02 10° NNW
Lacrosse 5 rocket 3.4 19:17:00 10° NNW 19:20:18 20° NNE 19:20:43 20° NNE
Cosmos 2082 Rocket 3.0 19:16:25 10° N 19:21:17 35° NE 19:21:17 35° NE
Cosmos 2098 Rocket 4.5 19:15:40 10° N 19:21:19 39° ENE 19:21:19 39° ENE
DMSP B5D2-2 4.1 19:18:31 10° N 19:23:50 78° WNW 19:29:05 10° SSW
BREEZE-M R/B 4.0 19:15:50 10° W 19:24:02 52° NNW 19:24:25 49° N
BREEZE-M DEB (TANK) 4.2 19:20:27 10° WNW 19:24:14 47° SSW 19:27:36 31° SSE
OBJECT-B 3.1 19:28:48 21° NNW 19:28:48 21° NNW 19:30:02 10° NNW
Cosmos 2142 Rocket 4.3 19:24:38 29° S 19:28:00 79° E 19:34:14 10° N
Ariane Rocket 3.8 19:28:06 24° SSW 19:30:51 49° W 19:35:47 10° NNW
H-2A R/B 4.3 19:28:53 10° SW 19:32:38 21° W 19:36:30 10° NW
Milstar 3 Cent rocket 4.1 19:29:32 10° SW 19:32:39 16° SSW 19:32:39 16° SSW
USA 234 4.2 19:38:14 30° S 19:38:14 30° S 19:41:37 10° SSW
Cosmos 1626 3.8 19:39:27 10° NNW 19:42:02 32° WNW 19:42:02 32° WNW
COSMOS 2406 3.3 19:41:57 10° NNW 19:47:36 69° WSW 19:47:56 68° SW
ISS -0.8 19:46:39 10° NW 19:47:46 16° NNW 19:47:46 16° NNW
Cosmos 2278 Rocket 2.5 19:44:38 10° SSW 19:51:32 57° NNE 19:56:00 10° NNE
Lacrosse 4 Rocket 3.4 19:51:09 10° NNW 19:52:52 23° NNW 19:52:52 23° NNW
Cosmos 909 Rocket 4.2 19:54:04 10° NNW 19:59:55 60° NNE 19:59:55 60° NNE
Resurs 01 Rocket 3.1 20:03:26 34° NNW 20:03:26 34° NNW 20:06:01 10° NNW
Cosmos 2266 Rocket 4.5 19:56:10 10° N 20:00:34 47° NNE 20:00:34 47° NNE
NOSS 3-4 (A) 4.4 19:56:33 10° WSW 20:02:12 43° NW 20:08:15 10° NNE
NOSS 3-4 (C) 4.4 19:56:39 10° WSW 20:02:17 44° NW 20:08:21 10° NNE
Meteor 2-19 Rocket 4.4 19:57:55 10° N 20:03:47 76° WNW 20:03:47 76° WNW
Cosmos 1833 Rocket 3.3 20:07:06 10° NNW 20:11:54 54° WNW 20:11:54 54° WNW
ATLAS 2AS CENTAUR R/B 4.0 20:17:32 10° WSW 20:25:05 45° NW 20:32:33 10° NNE
ATLAS 3B R/B 3.1 20:23:35 10° NW 20:29:50 57° WSW 20:29:50 57° WSW
Cosmos 2082 Rocket 4.1 21:00:30 10° NW 21:03:08 25° WNW 21:03:08 25° WNW
